Zurück zum Katalog

STARLINK-5931

AktivKommunikationVLEO
NORAD 56785·PAYLOAD·🇺🇸 United States

Gestartet May 31, 2023 von Vandenberg Space Force Base

Loading…

Nächste Überflüge (nächste 24 Stunden)

TLE

AktuellSource: CelesTrak SupGP

Epoche: Sep 14, 2026, 14:55 UTC

1 56785C 23078U   26257.62201389 -.00033486  00000+0 -28073-2 0  2578
2 56785  70.0001 228.2114 0003545 266.5641 226.8511 14.98332222    10

Verfolge STARLINK-5931 in Echtzeit mit AllMySat

Download on the App Store